Weather in Plauen

Germany     50°29′48″N   12°08′36″E
В апреле 2022 года жителям России запретили посещать сайт meteo.paraplan.net по решению Генеральной прокуратуры. Аудитория сайта уменьшилась в 10 раз. Владельцы сайта не видят смысла в поддержке погодного сервера в таких условиях. Сайт будет закрыт в октябре.
temp.,
°C
wind,
m/s
gust,
m/s
humid.,
%
clouds,
%
prec.,
mm/h
press.,
hPa
HPBL,
m
3 october, mon
mon323:00+8wnw311956 0.2 1021310
02:00+7wnw3109511 0.4 1022299
05:00+7wnw3109622 0.1 1023366
08:00+7wnw4119558 0.2 1025546
11:00+11nw797983 0.1 10251008
14:00+11nw6769100 0.3 10241210
17:00+12wnw4765100 0.0 1024459
20:00+10w3872100 0.0 1024295
4 october, tue
tue423:00+9w257999 0.0 1024141
02:00+9wnw1475100 0.0 1024119
05:00+6sw118731 0.0 102410
08:00+6ssw228851 0.0 102423
11:00+12sw336686 0.0 1023518
14:00+15wsw345793 0.0 1022862
17:00+15sw35625 0.0 1021700
20:00+10ssw33825 0.0 102239
5 october, wed
wed523:00+8s3586100 0.0 102381
02:00+8s4787100 0.0 1023119
05:00+8s4883100 0.0 1021165
08:00+8s4885100 0.0 1021154
11:00+14s51061100 0.0 1020423
14:00+18ssw695098 0.0 1019750
17:00+16ssw61162100 0.0 1019537
20:00+13ssw51470100 0.0 1020410
6 october, thu
thu623:00+14sw61671100 0.0 1022517
02:00+12sw5148712 0.0 1024347
05:00+10sw399571 0.0 1026198
08:00+11wnw259190 0.1 1028302
11:00+13nw346860 0.1 1030925
14:00+15wnw23485 0.1 10301242
17:00+15n22495 0.0 1029534
20:00+9ese11675 0.0 103110
7 october, fri
fri723:00+8sse11726 0.0 103110
02:00+7sse2276100 0.0 103011
05:00+6sse228181 0.0 102914
08:00+6sse23841 0.0 102835
11:00+14s45613 0.0 1026486
14:00+17sw35535 0.0 10231031
17:00+17wsw35625 0.0 1021534
20:00+11ssw33855 0.0 102126